Time,TemperatureF,DewpointF,PressureIn,WindDirection,WindDirectionDegrees,WindSpeedMPH,WindSpeedGustMPH,Humidity,HourlyPrecipIn,Conditions,Clouds,dailyrainin,SoftwareType,DateUTC
2013-03-12 00:02:00,47.1,43.0,29.98,SSE,150,2.0,5.0,84,0.00,,,0.00,weatherlink.com 1.10,2013-03-12 04:02:00,
2013-03-12 00:17:00,47.2,43.0,29.99,West,268,4.0,5.0,85,0.00,,,0.00,weatherlink.com 1.10,2013-03-12 04:17:00,
2013-03-12 00:32:00,47.4,43.0,29.98,ESE,121,2.0,7.0,85,0.00,,,0.00,weatherlink.com 1.10,2013-03-12 04:32:00,
2013-03-12 00:47:00,47.3,44.0,29.96,ESE,121,3.0,5.0,87,0.00,,,0.00,weatherlink.com 1.10,2013-03-12 04:47:00,
2013-03-12 01:02:00,47.7,44.0,29.96,SE,145,1.0,8.0,87,0.00,,,0.00,weatherlink.com 1.10,2013-03-12 05:02:00,
2013-03-12 01:17:00,48.0,44.0,29.97,SE,142,1.0,7.0,87,0.00,,,0.00,weatherlink.com 1.10,2013-03-12 05:17:00,
2013-03-12 01:32:00,48.2,45.0,29.96,East,101,2.0,8.0,88,0.00,,,0.00,weatherlink.com 1.10,2013-03-12 05:32:00,
2013-03-12 01:47:00,48.3,45.0,29.95,NE,39,2.0,6.0,88,0.00,,,0.00,weatherlink.com 1.10,2013-03-12 05:47:00,
2013-03-12 02:02:00,48.2,45.0,29.93,West,271,1.0,5.0,89,0.00,,,0.00,weatherlink.com 1.10,2013-03-12 06:02:00,
2013-03-12 02:17:00,48.4,46.0,29.93,NNE,25,1.0,6.0,90,0.00,,,0.00,weatherlink.com 1.10,2013-03-12 06:17:00,
2013-03-12 02:32:00,48.8,46.0,29.93,WNW,302,1.0,7.0,90,0.00,,,0.00,weatherlink.com 1.10,2013-03-12 06:32:00,
2013-03-12 02:47:00,49.3,47.0,29.93,West,271,1.0,7.0,90,0.00,,,0.00,weatherlink.com 1.10,2013-03-12 06:47:00,
2013-03-12 03:02:00,49.3,47.0,29.93,WSW,253,1.0,5.0,90,0.00,,,0.00,weatherlink.com 1.10,2013-03-12 07:02:00,
2013-03-12 03:17:00,49.5,47.0,29.91,NNE,33,0.0,9.0,90,0.00,,,0.00,weatherlink.com 1.10,2013-03-12 07:17:00,
2013-03-12 03:32:00,49.8,47.0,29.91,ESE,114,0.0,7.0,90,0.00,,,0.00,weatherlink.com 1.10,2013-03-12 07:32:00,
2013-03-12 04:02:00,50.1,47.0,29.89,ENE,70,2.0,10.0,88,0.00,,,0.00,weatherlink.com 1.10,2013-03-12 08:02:00,
2013-03-12 04:17:00,50.7,47.0,29.89,West,271,1.0,8.0,88,0.00,,,0.00,weatherlink.com 1.10,2013-03-12 08:17:00,
2013-03-12 04:32:00,51.0,47.0,29.89,North,354,1.0,6.0,87,0.00,,,0.00,weatherlink.com 1.10,2013-03-12 08:32:00,
2013-03-12 04:47:00,51.0,47.0,29.89,ESE,102,0.0,4.0,87,0.00,,,0.00,weatherlink.com 1.10,2013-03-12 08:47:00,
2013-03-12 05:02:00,51.0,47.0,29.89,SE,139,5.0,7.0,87,0.00,,,0.00,weatherlink.com 1.10,2013-03-12 09:02:00,
2013-03-12 05:17:00,51.2,48.0,29.89,SE,129,2.0,11.0,87,0.00,,,0.00,weatherlink.com 1.10,2013-03-12 09:17:00,
2013-03-12 05:32:00,50.9,47.0,29.88,WNW,302,4.0,9.0,87,0.00,,,0.00,weatherlink.com 1.10,2013-03-12 09:32:00,
2013-03-12 05:47:00,51.0,47.0,29.88,East,79,0.0,10.0,87,0.00,,,0.00,weatherlink.com 1.10,2013-03-12 09:47:00,
2013-03-12 06:02:00,51.2,48.0,29.88,WNW,293,3.0,5.0,87,0.00,,,0.00,weatherlink.com 1.10,2013-03-12 10:02:00,
2013-03-12 06:17:00,51.1,47.0,29.88,NNE,20,2.0,5.0,87,0.00,,,0.00,weatherlink.com 1.10,2013-03-12 10:17:00,
2013-03-12 06:32:00,51.1,47.0,29.87,West,269,3.0,8.0,87,0.00,,,0.00,weatherlink.com 1.10,2013-03-12 10:32:00,
2013-03-12 06:47:00,51.2,48.0,29.87,NW,321,1.0,8.0,88,0.00,,,0.00,weatherlink.com 1.10,2013-03-12 10:47:00,
2013-03-12 07:02:00,51.1,48.0,29.86,WNW,283,2.0,8.0,88,0.00,,,0.00,weatherlink.com 1.10,2013-03-12 11:02:00,
2013-03-12 07:17:00,51.2,48.0,29.85,NW,316,3.0,11.0,88,0.00,,,0.00,weatherlink.com 1.10,2013-03-12 11:17:00,
2013-03-12 07:32:00,51.2,48.0,29.85,WNW,285,2.0,6.0,89,0.00,,,0.00,weatherlink.com 1.10,2013-03-12 11:32:00,
2013-03-12 07:47:00,51.3,48.0,29.85,WNW,283,4.0,9.0,89,0.00,,,0.00,weatherlink.com 1.10,2013-03-12 11:47:00,
2013-03-12 08:17:00,51.8,49.0,29.84,WSW,245,3.0,7.0,89,0.00,,,0.00,weatherlink.com 1.10,2013-03-12 12:17:00,
2013-03-12 08:32:00,51.8,49.0,29.83,ESE,107,2.0,5.0,89,0.00,,,0.00,weatherlink.com 1.10,2013-03-12 12:32:00,
2013-03-12 08:47:00,51.9,49.0,29.84,NW,325,3.0,11.0,89,0.00,,,0.00,weatherlink.com 1.10,2013-03-12 12:47:00,
2013-03-12 09:02:00,51.9,49.0,29.84,NNW,343,0.0,11.0,90,0.00,,,0.00,weatherlink.com 1.10,2013-03-12 13:02:00,
2013-03-12 09:18:00,52.1,49.0,29.83,ENE,60,4.0,8.0,90,0.00,,,0.00,weatherlink.com 1.10,2013-03-12 13:18:00,
2013-03-12 09:33:00,52.3,49.0,29.83,WNW,293,4.0,5.0,89,0.00,,,0.00,weatherlink.com 1.10,2013-03-12 13:33:00,
2013-03-12 09:48:00,52.4,50.0,29.82,WSW,255,3.0,12.0,90,0.00,,,0.00,weatherlink.com 1.10,2013-03-12 13:48:00,
2013-03-12 10:03:00,52.4,50.0,29.82,SE,145,4.0,14.0,91,0.00,,,0.00,weatherlink.com 1.10,2013-03-12 14:03:00,
2013-03-12 10:18:00,51.9,50.0,29.82,West,269,1.0,7.0,93,0.01,,,0.01,weatherlink.com 1.10,2013-03-12 14:18:00,
2013-03-12 10:33:00,51.6,50.0,29.82,North,8,5.0,5.0,94,0.04,,,0.04,weatherlink.com 1.10,2013-03-12 14:33:00,
2013-03-12 10:48:00,51.6,50.0,29.81,East,85,5.0,7.0,95,0.04,,,0.04,weatherlink.com 1.10,2013-03-12 14:48:00,
2013-03-12 11:03:00,51.8,51.0,29.80,SE,139,0.0,4.0,95,0.04,,,0.04,weatherlink.com 1.10,2013-03-12 15:03:00,
2013-03-12 11:18:00,51.8,51.0,29.80,NNE,26,1.0,5.0,95,0.03,,,0.05,weatherlink.com 1.10,2013-03-12 15:18:00,
2013-03-12 11:33:00,51.7,51.0,29.80,NNE,13,1.0,6.0,96,0.03,,,0.07,weatherlink.com 1.10,2013-03-12 15:33:00,
2013-03-12 11:48:00,51.7,51.0,29.80,South,181,1.0,6.0,96,0.05,,,0.09,weatherlink.com 1.10,2013-03-12 15:48:00,
2013-03-12 12:03:00,51.7,51.0,29.79,NNW,327,1.0,6.0,96,0.05,,,0.09,weatherlink.com 1.10,2013-03-12 16:03:00,
2013-03-12 12:18:00,51.8,51.0,29.79,ENE,78,0.0,6.0,97,0.05,,,0.10,weatherlink.com 1.10,2013-03-12 16:18:00,
2013-03-12 12:33:00,52.0,51.0,29.78,South,187,5.0,5.0,97,0.03,,,0.10,weatherlink.com 1.10,2013-03-12 16:33:00,
2013-03-12 12:48:00,52.2,51.0,29.78,WNW,293,1.0,3.0,97,0.02,,,0.11,weatherlink.com 1.10,2013-03-12 16:48:00,
2013-03-12 13:03:00,52.2,51.0,29.77,ESE,113,0.0,4.0,97,0.03,,,0.12,weatherlink.com 1.10,2013-03-12 17:03:00,
2013-03-12 13:18:00,52.3,52.0,29.77,NW,314,0.0,3.0,97,0.02,,,0.12,weatherlink.com 1.10,2013-03-12 17:18:00,
2013-03-12 13:33:00,52.3,52.0,29.76,SSE,155,0.0,3.0,97,0.03,,,0.13,weatherlink.com 1.10,2013-03-12 17:33:00,
2013-03-12 13:48:00,52.1,51.0,29.75,WNW,284,0.0,3.0,97,0.04,,,0.15,weatherlink.com 1.10,2013-03-12 17:48:00,
2013-03-12 14:03:00,52.3,52.0,29.74,WNW,293,0.0,3.0,97,0.05,,,0.17,weatherlink.com 1.10,2013-03-12 18:03:00,
2013-03-12 14:18:00,52.5,52.0,29.73,SW,226,1.0,2.0,97,0.06,,,0.18,weatherlink.com 1.10,2013-03-12 18:18:00,
2013-03-12 14:33:00,52.6,52.0,29.72,WSW,257,1.0,2.0,97,0.08,,,0.21,weatherlink.com 1.10,2013-03-12 18:33:00,
2013-03-12 14:48:00,52.5,52.0,29.70,NW,313,0.0,2.0,97,0.09,,,0.24,weatherlink.com 1.10,2013-03-12 18:48:00,
2013-03-12 15:03:00,52.4,52.0,29.69,SE,134,0.0,4.0,97,0.11,,,0.28,weatherlink.com 1.10,2013-03-12 19:03:00,
2013-03-12 15:18:00,52.2,52.0,29.68,SSE,148,0.0,1.0,98,0.15,,,0.33,weatherlink.com 1.10,2013-03-12 19:18:00,
2013-03-12 15:33:00,52.0,52.0,29.68,NNW,343,1.0,5.0,98,0.17,,,0.38,weatherlink.com 1.10,2013-03-12 19:33:00,
2013-03-12 15:48:00,51.9,51.0,29.68,NNW,335,0.0,2.0,98,0.20,,,0.44,weatherlink.com 1.10,2013-03-12 19:48:00,
2013-03-12 16:03:00,51.8,51.0,29.68,WSW,241,0.0,2.0,98,0.22,,,0.50,weatherlink.com 1.10,2013-03-12 20:03:00,
2013-03-12 16:18:00,51.9,51.0,29.68,West,274,0.0,3.0,98,0.23,,,0.56,weatherlink.com 1.10,2013-03-12 20:18:00,
2013-03-12 16:33:00,46.5,45.0,29.68,West,271,1.0,9.0,93,0.27,,,0.65,weatherlink.com 1.10,2013-03-12 20:33:00,
2013-03-12 16:48:00,43.7,42.0,29.69,WNW,291,4.0,9.0,95,0.24,,,0.68,weatherlink.com 1.10,2013-03-12 20:48:00,
2013-03-12 17:03:00,43.0,42.0,29.69,West,273,3.0,5.0,96,0.19,,,0.69,weatherlink.com 1.10,2013-03-12 21:03:00,
2013-03-12 17:19:00,42.6,42.0,29.69,NW,304,2.0,5.0,96,0.12,,,0.69,weatherlink.com 1.10,2013-03-12 21:19:00,
2013-03-12 17:34:00,42.4,41.0,29.70,WNW,287,2.0,8.0,96,0.03,,,0.69,weatherlink.com 1.10,2013-03-12 21:34:00,
2013-03-12 17:49:00,41.9,41.0,29.70,WNW,287,1.0,6.0,95,0.02,,,0.70,weatherlink.com 1.10,2013-03-12 21:49:00,
2013-03-12 18:04:00,41.4,40.0,29.71,West,281,4.0,9.0,95,0.01,,,0.70,weatherlink.com 1.10,2013-03-12 22:04:00,
2013-03-12 18:19:00,41.1,40.0,29.71,WNW,293,1.0,9.0,95,0.01,,,0.70,weatherlink.com 1.10,2013-03-12 22:19:00,
2013-03-12 18:34:00,41.1,40.0,29.72,WNW,293,5.0,8.0,94,0.02,,,0.71,weatherlink.com 1.10,2013-03-12 22:34:00,
2013-03-12 18:49:00,41.1,39.0,29.73,WNW,293,5.0,12.0,93,0.01,,,0.71,weatherlink.com 1.10,2013-03-12 22:49:00,
2013-03-12 19:04:00,41.1,39.0,29.74,WNW,302,6.0,11.0,91,0.01,,,0.71,weatherlink.com 1.10,2013-03-12 23:04:00,
2013-03-12 19:19:00,41.1,38.0,29.75,NW,323,4.0,15.0,90,0.01,,,0.71,weatherlink.com 1.10,2013-03-12 23:19:00,
2013-03-12 19:34:00,40.6,38.0,29.77,WNW,297,5.0,9.0,89,0.00,,,0.71,weatherlink.com 1.10,2013-03-12 23:34:00,
2013-03-12 19:49:00,40.3,37.0,29.78,NW,316,2.0,11.0,89,0.00,,,0.71,weatherlink.com 1.10,2013-03-12 23:49:00,
2013-03-12 20:04:00,40.2,37.0,29.79,NNW,345,4.0,7.0,89,0.00,,,0.71,weatherlink.com 1.10,2013-03-13 00:04:00,
2013-03-12 20:19:00,40.1,37.0,29.80,WNW,283,1.0,8.0,88,0.00,,,0.71,weatherlink.com 1.10,2013-03-13 00:19:00,
2013-03-12 20:34:00,40.0,37.0,29.80,North,355,1.0,5.0,88,0.00,,,0.71,weatherlink.com 1.10,2013-03-13 00:34:00,
2013-03-12 20:49:00,39.9,37.0,29.81,WNW,283,1.0,3.0,89,0.00,,,0.71,weatherlink.com 1.10,2013-03-13 00:49:00,
2013-03-12 21:04:00,39.7,37.0,29.82,WNW,288,3.0,7.0,89,0.00,,,0.71,weatherlink.com 1.10,2013-03-13 01:04:00,
2013-03-12 21:19:00,39.6,37.0,29.83,SSW,195,0.0,4.0,89,0.00,,,0.71,weatherlink.com 1.10,2013-03-13 01:19:00,
2013-03-12 21:34:00,39.5,36.0,29.84,WSW,256,1.0,8.0,88,0.00,,,0.71,weatherlink.com 1.10,2013-03-13 01:34:00,
2013-03-12 21:49:00,39.5,36.0,29.85,West,280,2.0,5.0,88,0.00,,,0.71,weatherlink.com 1.10,2013-03-13 01:49:00,
2013-03-12 22:04:00,39.3,36.0,29.86,West,273,2.0,4.0,88,0.00,,,0.71,weatherlink.com 1.10,2013-03-13 02:04:00,
2013-03-12 22:19:00,39.2,36.0,29.86,NW,316,0.0,5.0,88,0.00,,,0.71,weatherlink.com 1.10,2013-03-13 02:19:00,
2013-03-12 22:34:00,39.1,36.0,29.86,WNW,293,2.0,4.0,88,0.00,,,0.71,weatherlink.com 1.10,2013-03-13 02:34:00,
2013-03-12 22:49:00,39.1,35.0,29.86,West,276,2.0,4.0,86,0.00,,,0.71,weatherlink.com 1.10,2013-03-13 02:49:00,
2013-03-12 23:04:00,39.1,35.0,29.86,NNW,340,0.0,3.0,85,0.00,,,0.71,weatherlink.com 1.10,2013-03-13 03:04:00,
2013-03-12 23:19:00,38.8,34.0,29.86,West,280,0.0,3.0,83,0.00,,,0.71,weatherlink.com 1.10,2013-03-13 03:19:00,
2013-03-12 23:34:00,38.4,33.0,29.87,West,281,0.0,3.0,82,0.00,,,0.71,weatherlink.com 1.10,2013-03-13 03:34:00,
2013-03-12 23:49:00,37.5,33.0,29.87,West,264,0.0,2.0,84,0.00,,,0.71,weatherlink.com 1.10,2013-03-13 03:49:00,